(130183) = 2000 AS58

Discovered at Socorro on 2000-01-04 by LINEAR.

Orbit

Orbit type: Main Belt

Note: WebGL enabled browser required.

epoch2023-09-13.0
epoch JD2460200.5
perihelion date2021-10-28.35651
perihelion JD2459515.85651
argument of perihelion (°)178.63396
ascending node (°)308.67456
inclination (°)14.83639
eccentricity0.2323435
perihelion distance (AU)2.3685333
Tisserand w.r.t. Jupiter3.1
ΔV w.r.t. Earth (km/sec)10.7
semimajor axis (AU)3.0854076
mean anomaly (°)124.50865
mean daily motion (°/day)0.18185910
aphelion distance (AU)3.802
period (years)5.42
P-vector [x]-0.60672707
P-vector [y]0.72686618
P-vector [z]0.32178847
Q-vector [x]-0.76936278
Q-vector [y]-0.43515723
Q-vector [z]-0.46767414
absolute magnitude14.83
phase slope0.15
uncertainty0
referenceMPEC 2023-X132
observations used1083
oppositions17
arc length (days)9502
first opposition used1997
last opposition used2023
residual rms (arc-secs)0.69
perturbers coarse indicatorM-v
perturbers precise indicator003Ek
first observation date used1997-07-11.0
last observation date used2023-07-17.0
computer nameMPCLINUX
JD of orbit computation2456966.879716
perihelion JD uncertainty (days)9.3740E-05
argument of perihelion uncertainty (°)2.9156E-05
ascending node uncertainty (°)2.2286E-05
inclination uncertainty (°)1.1011E-05
eccentricity uncertainty 9.9925E-08
perihelion distance uncertainty (AU)3.0765E-07
Minimum Orbit Intersection Distances (in AU)
for orbit epoch: 2460200.5, reference: E2023-XD2
Mercury2.03905
Venus1.65074
Earth1.38233
Mars0.72387
Jupiter1.28102
Saturn6.10895
Uranus15.8715
Neptune26.3283

Observations

1108 total observations over interval: 1997 07 11.35125 – 2023 07 17.53306
These data are available for download (format description).

Date (UT) J2000 RA J2000 Dec Magn Location Ref
1997 07 11.35125 21 40 18.29 -12 01 31.8 20.8 V 691 – Steward Observatory, Kitt Peak-Spacewatch MPS 115177
1997 07 11.37347 21 40 17.54 -12 01 31.5 20.5 V 691 – Steward Observatory, Kitt Peak-Spacewatch MPS 115177
1997 07 11.39561 21 40 16.74 -12 01 32.2 20.7 V 691 – Steward Observatory, Kitt Peak-Spacewatch MPS 115177
1999 12 15.39287 09 10 30.92 +21 48 26.2 18.5 R 703 – Catalina Sky Survey MPS 10141
1999 12 15.40514 09 10 30.81 +21 48 24.0 18.1 R 703 – Catalina Sky Survey MPS 10141
1999 12 15.41342 09 10 30.75 +21 48 21.8 19.3   704 – Lincoln Laboratory ETS, New Mexico MPS 10141
1999 12 15.41734 09 10 30.74 +21 48 20.0 18.4 R 703 – Catalina Sky Survey MPS 10141
1999 12 15.42862 09 10 30.66 +21 48 16.5 19.5   704 – Lincoln Laboratory ETS, New Mexico MPS 10141
1999 12 15.42956 09 10 30.66 +21 48 16.6 18.3 R 703 – Catalina Sky Survey MPS 10141
1999 12 15.44379 09 10 30.64 +21 48 12.9 19.6   704 – Lincoln Laboratory ETS, New Mexico MPS 10141
1999 12 15.45887 09 10 30.53 +21 48 09.2 19.8   704 – Lincoln Laboratory ETS, New Mexico MPS 10141
2000 01 04.36591 09 02 39.52 +20 32 01.5 18.3   704 – Lincoln Laboratory ETS, New Mexico MPS 9283
2000 01 04.38058 09 02 38.87 +20 31 58.5 18.6   704 – Lincoln Laboratory ETS, New Mexico MPS 9283
2000 01 04.39531 09 02 38.22 +20 31 55.3 18.6   704 – Lincoln Laboratory ETS, New Mexico MPS 9283
2000 01 04.41021 09 02 37.57 +20 31 52.1 18.6   704 – Lincoln Laboratory ETS, New Mexico MPS 9283
2000 01 04.42490 09 02 36.93 +20 31 48.5 18.4   704 – Lincoln Laboratory ETS, New Mexico MPS 9283
2000 01 05.33148 09 01 58.34 +20 28 37.3 18.1 R 699 – Lowell Observatory-LONEOS MPS 9283
2000 01 05.35185 09 01 57.44 +20 28 33.1   699 – Lowell Observatory-LONEOS MPS 9283
2000 01 05.37225 09 01 56.35 +20 28 30.8   699 – Lowell Observatory-LONEOS MPS 9283
2000 01 06.31599 09 01 14.55 +20 25 11.3 17.7   704 – Lincoln Laboratory ETS, New Mexico MPS 9283
2000 01 06.33064 09 01 13.88 +20 25 07.4 17.7   704 – Lincoln Laboratory ETS, New Mexico MPS 9283
2000 01 06.34537 09 01 13.17 +20 25 03.9 18.0   704 – Lincoln Laboratory ETS, New Mexico MPS 9283
2000 01 06.36003 09 01 12.47 +20 25 01.7 17.5   704 – Lincoln Laboratory ETS, New Mexico MPS 9283
2000 01 30.30710 08 38 05.19 +18 58 47.1 17.6   704 – Lincoln Laboratory ETS, New Mexico MPS 10141
2000 01 30.32200 08 38 04.27 +18 58 42.8 18.9   704 – Lincoln Laboratory ETS, New Mexico MPS 10141
2000 01 30.33679 08 38 03.24 +18 58 39.9 18.2   704 – Lincoln Laboratory ETS, New Mexico MPS 10141
2000 01 30.35155 08 38 02.31 +18 58 35.4 18.3   704 – Lincoln Laboratory ETS, New Mexico MPS 10141
2000 01 30.36631 08 38 01.31 +18 58 32.0 18.9   704 – Lincoln Laboratory ETS, New Mexico MPS 10141
2000 02 03.23276 08 33 58.83 +18 43 17.4 17.3   704 – Lincoln Laboratory ETS, New Mexico MPS 10141
2000 02 03.24259 08 33 58.26 +18 43 14.3 17.4 V 691 – Steward Observatory, Kitt Peak-Spacewatch MPS 12156
2000 02 03.24746 08 33 57.89 +18 43 14.4 18.1   704 – Lincoln Laboratory ETS, New Mexico MPS 10141
2000 02 03.26210 08 33 56.94 +18 43 10.6 18.1   704 – Lincoln Laboratory ETS, New Mexico MPS 10141
2000 02 03.26486 08 33 56.83 +18 43 09.0 17.4 V 691 – Steward Observatory, Kitt Peak-Spacewatch MPS 12156
2000 02 03.27674 08 33 55.99 +18 43 07.2 18.5   704 – Lincoln Laboratory ETS, New Mexico MPS 10141
2000 02 03.28688 08 33 55.41 +18 43 03.7 17.4 V 691 – Steward Observatory, Kitt Peak-Spacewatch MPS 12156
2000 02 03.29139 08 33 55.05 +18 43 03.8 18.0   704 – Lincoln Laboratory ETS, New Mexico MPS 10141
2000 02 08.25011 08 28 56.79 +18 22 45.5 17.3 V 691 – Steward Observatory, Kitt Peak-Spacewatch MPS 10141
2000 02 08.27268 08 28 55.44 +18 22 40.0 17.2 V 691 – Steward Observatory, Kitt Peak-Spacewatch MPS 10141
2000 02 08.29537 08 28 54.06 +18 22 34.2 17.2 V 691 – Steward Observatory, Kitt Peak-Spacewatch MPS 10141
2000 02 24.12166 08 16 17.76 +17 12 45.4 18.1 R 703 – Catalina Sky Survey MPS 10913
2000 02 24.13353 08 16 17.28 +17 12 42.7 18.2 R 703 – Catalina Sky Survey MPS 10913
2000 02 24.14542 08 16 16.87 +17 12 39.0 18.0 R 703 – Catalina Sky Survey MPS 10913
2000 02 24.15728 08 16 16.42 +17 12 35.6 18.1 R 703 – Catalina Sky Survey MPS 10913
2000 02 27.12588 08 14 39.08 +16 58 53.1 18.6 R 703 – Catalina Sky Survey MPS 10913
2000 02 27.14202 08 14 38.55 +16 58 48.5 18.5 R 703 – Catalina Sky Survey MPS 10913
2000 02 27.15817 08 14 37.97 +16 58 44.4 17.4 R 703 – Catalina Sky Survey MPS 10913
2000 02 27.17430 08 14 37.54 +16 58 37.9 17.0 R 703 – Catalina Sky Survey MPS 10913
2000 04 03.18757 08 16 29.00 +14 02 08.2 18.9   704 – Lincoln Laboratory ETS, New Mexico MPS 12156
2000 04 03.20185 08 16 29.44 +14 02 04.0 18.9   704 – Lincoln Laboratory ETS, New Mexico MPS 12156
2000 04 03.21632 08 16 29.94 +14 01 58.3 18.7   704 – Lincoln Laboratory ETS, New Mexico MPS 12156
2003 09 03.31555 22 54 42.51 +06 23 16.7 20.1   704 – Lincoln Laboratory ETS, New Mexico MPS 112567
2003 09 03.32752 22 54 41.87 +06 23 14.3 19.7   704 – Lincoln Laboratory ETS, New Mexico MPS 112567
2003 09 03.33962 22 54 41.26 +06 23 13.5 19.8   704 – Lincoln Laboratory ETS, New Mexico MPS 112567
2004 09 11.36385 04 20 25.91 +38 17 00.0 20.8   704 – Lincoln Laboratory ETS, New Mexico MPS 112567
2004 09 11.37516 04 20 26.34 +38 17 06.4 20.4   704 – Lincoln Laboratory ETS, New Mexico MPS 112567
2004 09 11.38664 04 20 26.85 +38 17 09.1 20.7   704 – Lincoln Laboratory ETS, New Mexico MPS 112567
2004 09 11.39803 04 20 27.50 +38 17 13.8 20.1   704 – Lincoln Laboratory ETS, New Mexico MPS 112567
2004 12 01.27655 03 57 38.29 +41 29 18.1 18.6   704 – Lincoln Laboratory ETS, New Mexico MPS 120332
2004 12 01.28912 03 57 37.51 +41 29 14.0 18.6   704 – Lincoln Laboratory ETS, New Mexico MPS 120332
2004 12 01.30200 03 57 36.53 +41 29 09.2 18.9   704 – Lincoln Laboratory ETS, New Mexico MPS 120332
2004 12 15.31264 03 44 09.69 +39 51 32.2 18.0 R 703 – Catalina Sky Survey MPS 121570
2004 12 15.31985 03 44 09.35 +39 51 28.8 18.1 R 703 – Catalina Sky Survey MPS 121570
2004 12 15.32704 03 44 09.02 +39 51 25.7 18.1 R 703 – Catalina Sky Survey MPS 121570
2004 12 15.33431 03 44 08.62 +39 51 22.0 18.5 R 703 – Catalina Sky Survey MPS 121570
2005 01 17.14880 03 34 52.39 +35 08 21.6 19.6   704 – Lincoln Laboratory ETS, New Mexico MPS 124544
2005 01 17.16231 03 34 52.63 +35 08 14.7 19.2   704 – Lincoln Laboratory ETS, New Mexico MPS 124544
2005 01 17.18759 03 34 53.01 +35 08 02.6 19.6   704 – Lincoln Laboratory ETS, New Mexico MPS 124544
2005 01 17.20023 03 34 53.11 +35 07 56.8 19.5   704 – Lincoln Laboratory ETS, New Mexico MPS 124544
2006 03 12.61369 12 55 12.82 -27 16 09.3 18.4 V E12 – Siding Spring Survey MPS 165901
2006 03 12.62374 12 55 12.36 -27 16 10.4 18.5 V E12 – Siding Spring Survey MPS 165901
2006 03 12.63319 12 55 11.89 -27 16 11.6 19.0 V E12 – Siding Spring Survey MPS 165901
2006 03 12.64273 12 55 11.46 -27 16 12.8 18.5 V E12 – Siding Spring Survey MPS 165901
2006 03 26.73505 12 43 14.41 -27 27 36.3 19.1 V E12 – Siding Spring Survey MPS 166905
2006 03 26.74026 12 43 14.12 -27 27 36.0 18.8 V E12 – Siding Spring Survey MPS 166905
2006 03 26.74542 12 43 13.80 -27 27 36.6 18.5 V E12 – Siding Spring Survey MPS 166905
2006 03 26.75069 12 43 13.47 -27 27 35.8 19.0 V E12 – Siding Spring Survey MPS 166905
2006 04 07.62189 12 32 17.41 -26 58 26.5 19.1 V E12 – Siding Spring Survey MPS 168184
2006 04 07.63143 12 32 16.87 -26 58 24.3 18.7 V E12 – Siding Spring Survey MPS 168184
2006 04 07.64102 12 32 16.33 -26 58 22.0 18.3 V E12 – Siding Spring Survey MPS 168184
2006 04 07.65065 12 32 15.82 -26 58 19.0 18.5 V E12 – Siding Spring Survey MPS 168184
2006 04 19.21935 12 22 43.41 -26 03 43.8 18.5 R 644 – Palomar Mountain/NEAT MPS 169077
2006 04 19.28580 12 22 40.35 -26 03 21.8 18.4 R 644 – Palomar Mountain/NEAT MPS 169077
2006 04 19.34832 12 22 37.51 -26 03 00.8 18.6 R 644 – Palomar Mountain/NEAT MPS 169077
2006 04 21.57361 12 21 02.48 -25 50 23.1 18.1 V E12 – Siding Spring Survey MPS 169077
2006 04 21.58322 12 21 02.16 -25 50 19.9 18.5 V E12 – Siding Spring Survey MPS 169077
2006 04 21.59274 12 21 01.76 -25 50 17.0 18.4 V E12 – Siding Spring Survey MPS 169077
2006 04 21.60236 12 21 01.33 -25 50 12.3 18.4 V E12 – Siding Spring Survey MPS 169077
